ARIANE 5 R/B, 42693

Orbit data source: Space-Track

ARIANE 5 R/B, 42693 is space debris in HEO originally from a launch on Thu, 04 May 2017 UTC launched from the French Guiana (FRGUI). Debris objects in space refer to the collection of defunct objects orbiting the Earth. Examples of debris include non-operational satellites, rocket bodies, and fragments generated from explosions, collisions, or faulty payload assembly.

Loading next visibility...
ARIANE 5 R/B details
Identifier
42693, 2017-023C
Orbit
HEO
Last TLE update12 hours ago
Origin
Flag of FRArianespace (FR)
ManufacturerAirbus Safran
MissionSpacecraft
Bus & MotorESC-A, Unknown motor
Mass~5,000 kg wet, ~5,000 kg dry
Launch date (UTC)
2017-05-04 (8 years ago)
Launch vehicleUnknown
Launch site
French Guiana (FRGUI)
Object type
Payload
Rocket body
Debris
Shape & HBRCyl + 1 Nozzle, 7 m
Radar Cross Section41.627 m², Large (>1 m²)

Expand to show TLE details & history

TLE from 12 hours ago
0 ARIANE 5 R/B
1 42693U 17023C   24347.88574565  .00010774  00000-0  19425-2 0  9997
2 42693   3.7941 274.6106 7185104  10.3386 358.7031  2.41250009 64733
Epoch: 2024-12-12T21:15Z
Definitive object data (Epoch: 2024-12-12T21:15:28.424Z)
Latitude-0.00001°
Longitude-126.15869°
Altitude261.806 km
Speed10.152 km/s
True Right ascension18h 19m 04s
True Declination0° 00' 00"
Sunlit
Object was in daylight at TLE epoch
Visualization TLE readout
Latitude1.08124°
Longitude37.24033°
Altitude25,198.408 km
Speed2.876 km/s
Apparent Right ascension04h 45m 52s
Apparent Declination-7° 02' 43"
Sunlit
Object is in daylight
Visualization observer readout
Local Sidereal Time08:00:49
Azimuth235.43° WSW
Elevation25.044°
Doppler factor1
Orbital elements
Apogee altitude33,987.499 km
Perigee altitude233.698 km
Semi-major axis23,488.735 km
Eccentricity0.7185104
Inclination3.7941°
RAAN274.6106°
Arg. of periapsis10.3386°
True anomaly348.6781°
Mean anomaly358.7031°
Eccentric anomaly355.40529°
Mean motion0.60291 °/min
BSTAR0.0019425
Orbital period597.1 mins
Loading maneuver chart data...
Loading historical data...
Loading historical data...
Loading historical data...
Loading historical data...
Loading historical data...
Loading historical data...
Loading historical data...
Other satellites on launch #23 in the year 2017 (2017-05-04 UTC)

ARIANE 5 R/B Visibility forecast

Observer location: undefined°, undefined

Span
Click to sort rows by Start time (UTC) header in descending order
Start Az.
Max El. time (UTC)
Max El. Az.
Max El.
End time (UTC)
End Az.
231 mins2024-12-13 09:31:03.111Z235.411° WSW2024-12-13 09:42:03.111Z235.578° WSW23.001°2024-12-13 13:22:03.111Z250.785° W
360 mins2024-12-14 03:31:03.111Z211.963° SW2024-12-14 08:17:03.111Z173.333° S33.96°2024-12-14 09:31:03.111Z184.843° SSW
|